Time,TemperatureF,DewpointF,PressureIn,WindDirection,WindDirectionDegrees,WindSpeedMPH,WindSpeedGustMPH,Humidity,HourlyPrecipIn,Conditions,Clouds,dailyrainin,SoftwareType,DateUTC
2013-07-05 00:01:00,82.0,76.0,30.06,SSE,154,8.0,20.0,83,0.00,,,0.13,,2013-07-05 04:01:00,
2013-07-05 00:11:00,82.0,76.0,30.08,SE,132,8.0,16.0,83,0.00,,,0.13,,2013-07-05 04:11:00,
2013-07-05 00:22:00,82.0,76.0,30.08,SE,132,8.0,16.0,83,0.00,,,0.13,,2013-07-05 04:22:00,
2013-07-05 00:33:00,82.0,76.0,30.07,ESE,115,0.0,16.0,82,0.00,,,0.13,,2013-07-05 04:33:00,
2013-07-05 00:43:00,82.0,77.0,30.07,ESE,119,11.0,18.0,85,0.00,,,0.13,,2013-07-05 04:43:00,
2013-07-05 00:53:00,82.0,77.0,30.07,SE,130,15.0,21.0,84,0.00,,,0.13,,2013-07-05 04:53:00,
2013-07-05 01:01:00,82.0,77.0,30.07,SE,130,15.0,21.0,84,0.00,,,0.13,,2013-07-05 05:01:00,
2013-07-05 01:12:00,82.0,77.0,30.07,ESE,123,8.0,22.0,84,0.00,,,0.13,,2013-07-05 05:12:00,
2013-07-05 01:22:00,82.0,76.0,30.07,ESE,111,9.0,20.0,83,0.00,,,0.13,,2013-07-05 05:22:00,
2013-07-05 01:33:00,82.0,77.0,30.06,ESE,115,8.0,19.0,84,0.00,,,0.13,,2013-07-05 05:33:00,
2013-07-05 01:43:00,82.0,77.0,30.05,ESE,113,11.0,20.0,84,0.00,,,0.13,,2013-07-05 05:43:00,
2013-07-05 01:52:00,82.0,77.0,30.05,SSE,151,13.0,20.0,85,0.00,,,0.13,,2013-07-05 05:52:00,
2013-07-05 02:02:00,82.0,77.0,30.04,SE,140,4.0,21.0,85,0.00,,,0.13,,2013-07-05 06:02:00,
2013-07-05 02:13:00,82.0,77.0,30.03,SE,132,11.0,19.0,84,0.00,,,0.13,,2013-07-05 06:13:00,
2013-07-05 02:23:00,82.0,77.0,30.03,ESE,121,12.0,18.0,84,0.00,,,0.13,,2013-07-05 06:23:00,
2013-07-05 02:34:00,82.0,77.0,30.03,SE,138,12.0,18.0,85,0.00,,,0.13,,2013-07-05 06:34:00,
2013-07-05 02:44:00,82.0,77.0,30.03,SE,128,9.0,18.0,84,0.00,,,0.13,,2013-07-05 06:44:00,
2013-07-05 02:53:00,82.0,77.0,30.02,SSE,147,9.0,20.0,85,0.00,,,0.13,,2013-07-05 06:53:00,
2013-07-05 03:02:00,82.0,77.0,30.02,SE,137,10.0,20.0,84,0.00,,,0.13,,2013-07-05 07:02:00,
2013-07-05 03:12:00,82.0,76.0,30.02,SSE,156,7.0,20.0,83,0.00,,,0.13,,2013-07-05 07:12:00,
2013-07-05 03:23:00,83.0,77.0,30.02,SE,132,10.0,20.0,83,0.00,,,0.13,,2013-07-05 07:23:00,
2013-07-05 03:34:00,83.0,78.0,30.02,SE,133,5.0,17.0,84,0.00,,,0.13,,2013-07-05 07:34:00,
2013-07-05 03:43:00,82.0,77.0,30.01,ESE,114,10.0,17.0,84,0.00,,,0.13,,2013-07-05 07:43:00,
2013-07-05 03:53:00,82.0,77.0,30.01,ESE,108,6.0,18.0,84,0.00,,,0.13,,2013-07-05 07:53:00,
2013-07-05 04:03:00,83.0,78.0,30.01,East,80,9.0,19.0,84,0.00,,,0.13,,2013-07-05 08:03:00,
2013-07-05 04:12:00,82.0,77.0,30.01,SE,130,13.0,21.0,84,0.00,,,0.13,,2013-07-05 08:12:00,
2013-07-05 04:23:00,83.0,78.0,30.01,SE,126,11.0,20.0,84,0.00,,,0.13,,2013-07-05 08:23:00,
2013-07-05 04:33:00,82.0,77.0,30.01,ESE,105,12.0,19.0,85,0.00,,,0.13,,2013-07-05 08:33:00,
2013-07-05 04:44:00,82.0,77.0,30.00,ESE,117,7.0,15.0,86,0.00,,,0.13,,2013-07-05 08:44:00,
2013-07-05 04:55:00,81.0,75.0,30.00,ESE,115,3.0,25.0,83,0.04,,,0.17,,2013-07-05 08:55:00,
2013-07-05 05:08:00,80.0,76.0,30.00,ESE,115,2.0,25.0,87,0.08,,,0.21,,2013-07-05 09:08:00,
2013-07-05 05:16:00,81.0,77.0,30.01,East,100,11.0,23.0,88,0.08,,,0.21,,2013-07-05 09:16:00,
2013-07-05 05:26:00,81.0,77.0,30.00,ESE,123,9.0,19.0,89,0.08,,,0.21,,2013-07-05 09:26:00,
2013-07-05 05:37:00,81.0,77.0,29.99,ESE,123,8.0,16.0,88,0.08,,,0.21,,2013-07-05 09:37:00,
2013-07-05 05:47:00,81.0,77.0,29.99,ESE,120,8.0,15.0,88,0.08,,,0.21,,2013-07-05 09:47:00,
2013-07-05 05:54:00,81.0,77.0,30.00,East,98,4.0,15.0,87,0.04,,,0.21,,2013-07-05 09:54:00,
2013-07-05 06:18:00,82.0,77.0,30.00,ESE,122,12.0,18.0,86,0.00,,,0.21,,2013-07-05 10:18:00,
2013-07-05 06:26:00,82.0,77.0,30.00,ESE,122,11.0,22.0,85,0.00,,,0.21,,2013-07-05 10:26:00,
2013-07-05 06:36:00,82.0,77.0,30.00,East,96,11.0,19.0,85,0.00,,,0.21,,2013-07-05 10:36:00,
2013-07-05 06:47:00,82.0,77.0,30.00,ESE,105,7.0,21.0,84,0.00,,,0.21,,2013-07-05 10:47:00,
2013-07-05 06:55:00,82.0,76.0,30.01,ESE,121,11.0,19.0,83,0.00,,,0.21,,2013-07-05 10:55:00,
2013-07-05 07:08:00,82.0,76.0,30.01,ESE,113,11.0,20.0,83,0.00,,,0.21,,2013-07-05 11:08:00,
2013-07-05 07:18:00,82.0,77.0,30.02,East,97,10.0,20.0,84,0.00,,,0.21,,2013-07-05 11:18:00,
2013-07-05 07:24:00,82.0,77.0,30.01,East,84,14.0,21.0,84,0.00,,,0.21,,2013-07-05 11:24:00,
2013-07-05 07:37:00,82.0,77.0,30.01,ESE,112,13.0,23.0,84,0.00,,,0.21,,2013-07-05 11:37:00,
2013-07-05 07:47:00,82.0,77.0,30.02,ESE,111,9.0,23.0,84,0.00,,,0.21,,2013-07-05 11:47:00,
2013-07-05 07:57:00,83.0,78.0,30.02,ESE,107,8.0,19.0,84,0.00,,,0.21,,2013-07-05 11:57:00,
2013-07-05 08:08:00,83.0,78.0,30.03,ESE,103,8.0,20.0,84,0.00,,,0.21,,2013-07-05 12:08:00,
2013-07-05 08:16:00,83.0,78.0,30.03,East,80,13.0,20.0,84,0.00,,,0.21,,2013-07-05 12:16:00,
2013-07-05 08:24:00,82.0,77.0,30.03,ESE,117,9.0,21.0,85,0.00,,,0.21,,2013-07-05 12:24:00,
2013-07-05 08:37:00,82.0,77.0,30.03,SE,137,11.0,22.0,86,0.00,,,0.21,,2013-07-05 12:37:00,
2013-07-05 08:56:00,82.0,77.0,30.03,SE,130,4.0,17.0,86,0.00,,,0.21,,2013-07-05 12:56:00,
2013-07-05 09:13:00,78.0,74.0,30.05,SE,146,0.0,27.0,87,0.20,,,0.41,,2013-07-05 13:13:00,
2013-07-05 09:25:00,77.0,74.0,30.06,SSE,155,24.0,40.0,90,0.33,,,0.54,,2013-07-05 13:25:00,
2013-07-05 09:39:00,77.0,75.0,30.07,SSE,158,18.0,35.0,93,0.51,,,0.72,,2013-07-05 13:39:00,
2013-07-05 09:48:00,75.0,73.0,30.08,East,96,14.0,30.0,92,0.58,,,0.79,,2013-07-05 13:48:00,
2013-07-05 09:55:00,75.0,73.0,30.07,SE,140,11.0,28.0,93,0.60,,,0.81,,2013-07-05 13:55:00,
2013-07-05 10:07:00,75.0,73.0,30.06,SE,124,10.0,20.0,92,0.59,,,0.83,,2013-07-05 14:07:00,
2013-07-05 10:16:00,76.0,74.0,30.06,SE,142,11.0,24.0,93,0.44,,,0.85,,2013-07-05 14:16:00,
2013-07-05 10:27:00,77.0,74.0,30.06,South,169,15.0,24.0,92,0.36,,,0.87,,2013-07-05 14:27:00,
2013-07-05 10:37:00,77.0,74.0,30.06,SSE,157,3.0,23.0,91,0.16,,,0.88,,2013-07-05 14:37:00,
2013-07-05 10:46:00,77.0,74.0,30.06,South,184,12.0,21.0,89,0.10,,,0.89,,2013-07-05 14:46:00,
2013-07-05 10:55:00,77.0,73.0,30.06,South,177,9.0,22.0,87,0.10,,,0.91,,2013-07-05 14:55:00,
2013-07-05 11:07:00,78.0,73.0,30.06,SSW,194,13.0,22.0,85,0.08,,,0.91,,2013-07-05 15:07:00,
2013-07-05 11:24:00,79.0,73.0,30.06,SSE,157,8.0,14.0,83,0.06,,,0.93,,2013-07-05 15:24:00,
2013-07-05 11:43:00,80.0,74.0,30.06,SSE,162,6.0,14.0,81,0.05,,,0.94,,2013-07-05 15:43:00,
2013-07-05 11:53:00,80.0,74.0,30.07,SSE,147,2.0,14.0,82,0.03,,,0.94,,2013-07-05 15:53:00,
2013-07-05 12:02:00,80.0,74.0,30.07,ESE,123,0.0,12.0,83,0.04,,,0.95,,2013-07-05 16:02:00,
2013-07-05 12:33:00,81.0,75.0,30.06,ENE,73,0.0,7.0,83,0.02,,,0.95,,2013-07-05 16:33:00,
2013-07-05 12:44:00,82.0,76.0,30.06,ESE,110,3.0,8.0,83,0.01,,,0.95,,2013-07-05 16:44:00,
2013-07-05 12:53:00,82.0,76.0,30.06,East,99,2.0,12.0,83,0.01,,,0.95,,2013-07-05 16:53:00,
2013-07-05 13:02:00,82.0,76.0,30.06,ENE,65,1.0,11.0,83,0.00,,,0.95,,2013-07-05 17:02:00,
2013-07-05 13:12:00,83.0,77.0,30.05,ENE,68,0.0,3.0,83,0.00,,,0.95,,2013-07-05 17:12:00,
2013-07-05 13:53:00,83.0,79.0,30.05,ESE,116,3.0,14.0,87,0.00,,,0.95,,2013-07-05 17:53:00,
2013-07-05 14:02:00,83.0,78.0,30.05,ESE,109,15.0,26.0,86,0.00,,,0.95,,2013-07-05 18:02:00,
2013-07-05 14:22:00,83.0,78.0,30.05,ESE,109,13.0,22.0,84,0.00,,,0.95,,2013-07-05 18:22:00,
2013-07-05 14:33:00,83.0,78.0,30.05,ENE,72,18.0,23.0,84,0.00,,,0.95,,2013-07-05 18:33:00,
2013-07-05 14:43:00,83.0,78.0,30.04,East,101,9.0,24.0,84,0.00,,,0.95,,2013-07-05 18:43:00,
2013-07-05 14:53:00,83.0,78.0,30.04,ESE,103,9.0,20.0,84,0.00,,,0.95,,2013-07-05 18:53:00,
2013-07-05 15:01:00,83.0,78.0,30.04,NE,54,1.0,18.0,84,0.00,,,0.95,,2013-07-05 19:01:00,
2013-07-05 15:12:00,83.0,78.0,30.04,East,83,5.0,16.0,85,0.00,,,0.95,,2013-07-05 19:12:00,
2013-07-05 15:22:00,83.0,78.0,30.03,ESE,107,14.0,20.0,85,0.00,,,0.95,,2013-07-05 19:22:00,
2013-07-05 15:34:00,83.0,78.0,30.03,ESE,117,14.0,23.0,84,0.00,,,0.95,,2013-07-05 19:34:00,
2013-07-05 15:43:00,83.0,78.0,30.03,East,98,15.0,23.0,85,0.00,,,0.95,,2013-07-05 19:43:00,
2013-07-05 15:53:00,83.0,78.0,30.03,ESE,102,12.0,19.0,85,0.00,,,0.95,,2013-07-05 19:53:00,
2013-07-05 16:11:00,84.0,79.0,30.01,ESE,114,15.0,21.0,84,0.00,,,0.95,,2013-07-05 20:11:00,
2013-07-05 16:22:00,84.0,78.0,30.01,ESE,111,16.0,22.0,83,0.00,,,0.95,,2013-07-05 20:22:00,
2013-07-05 16:33:00,84.0,78.0,30.01,ESE,106,11.0,24.0,83,0.00,,,0.95,,2013-07-05 20:33:00,
2013-07-05 16:43:00,84.0,78.0,30.01,ESE,117,14.0,21.0,83,0.00,,,0.95,,2013-07-05 20:43:00,
2013-07-05 16:53:00,84.0,78.0,30.01,ESE,102,8.0,21.0,83,0.00,,,0.95,,2013-07-05 20:53:00,
2013-07-05 17:01:00,84.0,78.0,30.01,ESE,120,14.0,23.0,83,0.00,,,0.95,,2013-07-05 21:01:00,
2013-07-05 17:12:00,84.0,79.0,30.01,East,91,11.0,20.0,84,0.00,,,0.95,,2013-07-05 21:12:00,
2013-07-05 17:22:00,84.0,78.0,30.01,ESE,103,12.0,21.0,83,0.00,,,0.95,,2013-07-05 21:22:00,
2013-07-05 17:43:00,82.0,77.0,30.00,ESE,119,9.0,18.0,84,0.01,,,0.96,,2013-07-05 21:43:00,
2013-07-05 17:53:00,82.0,77.0,29.99,ESE,121,12.0,18.0,86,0.01,,,0.96,,2013-07-05 21:53:00,
2013-07-05 18:02:00,83.0,78.0,30.00,SE,134,13.0,24.0,86,0.02,,,0.97,,2013-07-05 22:02:00,
2013-07-05 18:11:00,83.0,78.0,29.99,East,92,10.0,22.0,85,0.02,,,0.97,,2013-07-05 22:11:00,
2013-07-05 18:22:00,83.0,78.0,29.99,ESE,109,5.0,18.0,85,0.02,,,0.97,,2013-07-05 22:22:00,
2013-07-05 18:34:00,83.0,78.0,29.99,ESE,114,8.0,18.0,85,0.01,,,0.97,,2013-07-05 22:34:00,
2013-07-05 18:43:00,83.0,78.0,29.99,ESE,108,10.0,18.0,85,0.01,,,0.97,,2013-07-05 22:43:00,
2013-07-05 18:53:00,83.0,78.0,30.00,ESE,111,12.0,26.0,84,0.01,,,0.97,,2013-07-05 22:53:00,
2013-07-05 19:02:00,82.0,78.0,29.99,ESE,112,8.0,22.0,87,0.00,,,0.97,,2013-07-05 23:02:00,
2013-07-05 19:11:00,82.0,77.0,29.99,East,99,10.0,18.0,86,0.00,,,0.97,,2013-07-05 23:11:00,
2013-07-05 19:23:00,82.0,77.0,29.99,ESE,110,11.0,19.0,85,0.00,,,0.97,,2013-07-05 23:23:00,
2013-07-05 19:32:00,83.0,78.0,30.00,ESE,118,9.0,15.0,85,0.00,,,0.97,,2013-07-05 23:32:00,
2013-07-05 19:43:00,83.0,78.0,30.00,ESE,113,5.0,15.0,85,0.00,,,0.97,,2013-07-05 23:43:00,
2013-07-05 19:53:00,83.0,78.0,30.00,East,86,9.0,14.0,86,0.00,,,0.97,,2013-07-05 23:53:00,
2013-07-05 20:01:00,83.0,78.0,30.00,ESE,109,11.0,16.0,86,0.00,,,0.97,,2013-07-06 00:01:00,
2013-07-05 20:12:00,83.0,78.0,30.01,ESE,120,7.0,18.0,85,0.00,,,0.97,,2013-07-06 00:12:00,
2013-07-05 20:22:00,83.0,78.0,30.01,ESE,115,4.0,14.0,84,0.00,,,0.97,,2013-07-06 00:22:00,
2013-07-05 20:33:00,83.0,77.0,30.02,East,101,6.0,15.0,83,0.00,,,0.97,,2013-07-06 00:33:00,
2013-07-05 20:42:00,83.0,77.0,30.02,SE,131,5.0,15.0,83,0.00,,,0.97,,2013-07-06 00:42:00,
2013-07-05 20:53:00,83.0,77.0,30.03,SE,125,8.0,14.0,83,0.00,,,0.89,,2013-07-06 00:53:00,
2013-07-05 21:02:00,83.0,77.0,30.03,SE,137,7.0,15.0,83,0.00,,,0.89,,2013-07-06 01:02:00,
2013-07-05 21:12:00,83.0,77.0,30.03,ESE,109,5.0,12.0,83,0.00,,,0.89,,2013-07-06 01:12:00,
2013-07-05 21:22:00,83.0,78.0,30.03,SSE,162,12.0,19.0,84,0.00,,,0.89,,2013-07-06 01:22:00,
2013-07-05 21:43:00,82.0,77.0,30.04,SSE,148,5.0,14.0,85,0.00,,,0.89,,2013-07-06 01:43:00,
2013-07-05 21:53:00,82.0,77.0,30.04,ESE,121,6.0,13.0,85,0.00,,,0.84,,2013-07-06 01:53:00,
2013-07-05 22:02:00,83.0,78.0,30.04,SE,126,5.0,8.0,85,0.00,,,0.84,,2013-07-06 02:02:00,
2013-07-05 22:12:00,82.0,76.0,30.05,SSE,156,17.0,38.0,83,0.00,,,0.84,,2013-07-06 02:12:00,
2013-07-05 22:22:00,80.0,75.0,30.05,SSE,167,0.0,19.0,85,0.03,,,0.87,,2013-07-06 02:22:00,
2013-07-05 22:34:00,80.0,76.0,30.05,SSE,151,0.0,0.0,87,0.07,,,0.91,,2013-07-06 02:34:00,
2013-07-05 22:43:00,80.0,76.0,30.04,SE,140,0.0,0.0,88,0.10,,,0.94,,2013-07-06 02:43:00,
2013-07-05 22:53:00,81.0,77.0,30.04,ESE,111,1.0,13.0,88,0.12,,,0.96,,2013-07-06 02:53:00,
2013-07-05 23:12:00,82.0,77.0,30.04,ESE,117,7.0,15.0,86,0.14,,,0.98,,2013-07-06 03:12:00,
2013-07-05 23:22:00,82.0,77.0,30.05,SE,138,8.0,17.0,85,0.11,,,0.98,,2013-07-06 03:22:00,
2013-07-05 23:34:00,82.0,77.0,30.05,ESE,105,9.0,18.0,85,0.07,,,0.98,,2013-07-06 03:34:00,
2013-07-05 23:52:00,82.0,77.0,30.04,SE,128,9.0,16.0,85,0.02,,,0.98,,2013-07-06 03:52:00,